Hazen, ND

3:07 AM CST on February 28, 2017 (GMT -0600)
Mercer County Regional

Weather History for KHZE - November, 2013

Change the Weather History Date:

Sunday, November 17, 2013

  Actual Average (KN60) Record (KN60)
Temperature  
Mean Temperature 30 °F -  
Max Temperature 33 °F 33 °F 62 °F (2001)
Min Temperature 28 °F 16 °F 0 °F (1996)
Degree Days  
Heating Degree Days 34    
Moisture  
Dew Point 28 °F    
Average Humidity 89    
Maximum Humidity 100    
Minimum Humidity 75    
Precipitation  
Precipitation 0.04 in - - ()
Sea Level Pressure  
Sea Level Pressure 29.69 in    
Wind  
Wind Speed 5 mph (NW)    
Max Wind Speed 14 mph    
Max Gust Speed 16 mph    
Visibility 8 miles    
Events Rain , Snow    
Averages and records for this station are not official NWS values.
T = Trace of Precipitation, MM = Missing Value Source: NWS Daily Summary

Daily Weather History Graph

Daily Weather History Graph

Search for Another Location

Airport or City:

Trip Planner

Search our weather history database for the weather conditions in past years. The results will help you decide how hot, cold, wet, or windy it might be!

Date:

Astronomy

Nov. 17, 2013 Rise Set
Actual Time 7:53 AM CST 5:08 PM CST
Civil Twilight 7:20 AM CST 5:41 PM CST
Nautical Twilight 6:42 AM CST 6:19 PM CST
Astronomical Twilight 6:06 AM CST 6:55 PM CST
Moon 5:26 PM CST (11/17) 7:49 AM CST (11/17)
Length of Visible Light 10h 21m
Length of Day
9h 14m
Full, 100% of the Moon is Illuminated
Nov 17
Full
Nov 25
Last Quarter
Dec 2
New
Dec 9
First Quarter
Dec 17
Full

Hourly Weather History & Observations

Time (CST) Temp. Windchill Dew Point Humidity Pressure Visibility Wind Dir Wind Speed Gust Speed Precip Events Conditions
12:15 AM 33.8 °F - 33.8 °F 100% 29.40 in 0.8 mi Calm Calm - N/A   Mostly Cloudy
12:35 AM 32.0 °F 28.7 °F 32.0 °F 100% 29.40 in 3.0 mi WSW 3.5 mph - N/A   Mostly Cloudy
12:55 AM 33.8 °F - 32.0 °F 93% 29.40 in 3.0 mi Calm Calm - N/A   Overcast
1:15 AM 33.8 °F 30.8 °F 33.8 °F 100% 29.40 in 5.0 mi WSW 3.5 mph - N/A   Overcast
1:35 AM 33.8 °F 29.6 °F 33.8 °F 100% 29.40 in 6.0 mi WSW 4.6 mph - N/A   Overcast
1:55 AM 33.8 °F - 33.8 °F 100% 29.40 in 7.0 mi Calm Calm - N/A   Overcast
2:15 AM 33.8 °F - 33.8 °F 100% 29.41 in 6.0 mi Calm Calm - N/A   Overcast
2:35 AM 33.8 °F - 32.0 °F 93% 29.41 in 4.0 mi Calm Calm - N/A   Overcast
2:55 AM 33.8 °F - 32.0 °F 93% 29.42 in 4.0 mi Calm Calm - N/A   Overcast
3:15 AM 33.8 °F - 32.0 °F 93% 29.43 in 5.0 mi Calm Calm - N/A   Overcast
3:35 AM 33.8 °F 30.8 °F 32.0 °F 93% 29.43 in 5.0 mi SW 3.5 mph - N/A   Overcast
3:55 AM 33.8 °F 30.8 °F 32.0 °F 93% 29.44 in 6.0 mi WSW 3.5 mph - N/A   Overcast
4:15 AM 33.8 °F - 32.0 °F 93% 29.44 in 5.0 mi Calm Calm - N/A Rain Light Rain
4:35 AM 33.8 °F 30.8 °F 32.0 °F 93% 29.45 in 3.0 mi West 3.5 mph - N/A Rain Light Rain
4:55 AM 33.8 °F 30.8 °F 32.0 °F 93% 29.46 in 4.0 mi NW 3.5 mph - N/A Rain Light Rain
5:15 AM 33.8 °F 25.8 °F 33.8 °F 100% 29.47 in 5.0 mi NNE 10.4 mph - N/A   Overcast
5:35 AM 32.0 °F 25.6 °F 32.0 °F 100% 29.48 in 5.0 mi NE 6.9 mph - N/A   Overcast
5:55 AM 32.0 °F 25.6 °F 32.0 °F 100% 29.48 in 4.0 mi ENE 6.9 mph - N/A   Overcast
6:15 AM 32.0 °F 25.6 °F 32.0 °F 100% 29.49 in 5.0 mi NE 6.9 mph - N/A   Overcast
6:35 AM 32.0 °F 24.8 °F 32.0 °F 100% 29.51 in 10.0 mi NE 8.1 mph - N/A   Overcast
6:55 AM 32.0 °F 24.8 °F 32.0 °F 100% 29.52 in 10.0 mi NE 8.1 mph - N/A   Overcast
7:15 AM 32.0 °F 24.2 °F 30.2 °F 93% 29.53 in 10.0 mi NE 9.2 mph - N/A   Overcast
7:35 AM 32.0 °F 25.6 °F 30.2 °F 93% 29.55 in 10.0 mi NE 6.9 mph - N/A   Overcast
7:55 AM 32.0 °F 25.6 °F 28.4 °F 87% 29.56 in 10.0 mi NE 6.9 mph - N/A   Overcast
8:35 AM 30.2 °F 26.7 °F 28.4 °F 93% 29.58 in 10.0 mi ENE 3.5 mph - N/A   Overcast
8:55 AM 32.0 °F 28.7 °F 28.4 °F 87% 29.60 in 10.0 mi NNE 3.5 mph - N/A   Overcast
9:15 AM 32.0 °F 24.8 °F 28.4 °F 87% 29.61 in 10.0 mi North 8.1 mph - N/A   Overcast
9:35 AM 30.2 °F 22.6 °F 28.4 °F 93% 29.63 in 10.0 mi North 8.1 mph - N/A   Overcast
9:55 AM 30.2 °F 21.9 °F 28.4 °F 93% 29.64 in 5.0 mi North 9.2 mph - N/A   Overcast
10:15 AM 30.2 °F 23.4 °F 28.4 °F 93% 29.65 in 8.0 mi North 6.9 mph - N/A   Overcast
10:35 AM 30.2 °F 22.6 °F 28.4 °F 93% 29.66 in 10.0 mi North 8.1 mph - N/A   Overcast
10:55 AM 30.2 °F 22.6 °F 28.4 °F 93% 29.67 in 8.0 mi North 8.1 mph - N/A   Overcast
11:15 AM 30.2 °F 21.9 °F 26.6 °F 86% 29.69 in 5.0 mi North 9.2 mph - N/A Snow Light Snow
11:35 AM 28.4 °F 20.4 °F 26.6 °F 93% 29.70 in 3.0 mi North 8.1 mph - 0.03 in Snow Light Snow
11:55 AM 28.4 °F 20.4 °F 26.6 °F 93% 29.71 in 5.0 mi North 8.1 mph - 0.04 in Snow Light Snow
12:15 PM 28.4 °F 20.4 °F 26.6 °F 93% 29.72 in 10.0 mi North 8.1 mph - N/A Snow Light Snow
12:35 PM 28.4 °F 19.1 °F 26.6 °F 93% 29.73 in 10.0 mi North 10.4 mph - N/A   Overcast
12:55 PM 28.4 °F 19.7 °F 24.8 °F 86% 29.74 in 10.0 mi North 9.2 mph - N/A   Overcast
1:15 PM 28.4 °F 19.7 °F 24.8 °F 86% 29.75 in 10.0 mi NNW 9.2 mph - N/A   Overcast
1:35 PM 28.4 °F 20.4 °F 24.8 °F 86% 29.76 in 10.0 mi North 8.1 mph - N/A   Overcast
1:55 PM 28.4 °F 19.7 °F 24.8 °F 86% 29.77 in 10.0 mi NNW 9.2 mph - N/A   Overcast
2:15 PM 28.4 °F 19.7 °F 24.8 °F 86% 29.78 in 10.0 mi NW 9.2 mph - N/A   Overcast
2:35 PM 28.4 °F 19.7 °F 24.8 °F 86% 29.78 in 10.0 mi NW 9.2 mph - N/A   Overcast
2:55 PM 28.4 °F 20.4 °F 24.8 °F 86% 29.80 in 10.0 mi NNW 8.1 mph - N/A   Overcast
3:15 PM 28.4 °F 19.1 °F 24.8 °F 86% 29.81 in 10.0 mi NW 10.4 mph - N/A   Overcast
3:35 PM 28.4 °F 19.7 °F 24.8 °F 86% 29.82 in 10.0 mi NNW 9.2 mph - N/A   Overcast
3:55 PM 28.4 °F 19.1 °F 24.8 °F 86% 29.83 in 10.0 mi NW 10.4 mph - N/A   Overcast
4:15 PM 28.4 °F 19.7 °F 24.8 °F 86% 29.84 in 10.0 mi NW 9.2 mph - N/A   Overcast
4:35 PM 28.4 °F 19.7 °F 24.8 °F 86% 29.84 in 10.0 mi NW 9.2 mph - N/A   Overcast
4:55 PM 28.4 °F 20.4 °F 24.8 °F 86% 29.86 in 10.0 mi WNW 8.1 mph - N/A   Overcast
5:15 PM 28.4 °F 20.4 °F 24.8 °F 86% 29.86 in 10.0 mi WNW 8.1 mph - N/A   Overcast
5:35 PM 28.4 °F - 24.8 °F 86% 29.87 in 10.0 mi North - - N/A   Overcast
5:55 PM 28.4 °F 19.1 °F 24.8 °F 86% 29.88 in 10.0 mi NW 10.4 mph 16.1 mph N/A   Overcast
6:15 PM 28.4 °F 19.1 °F 24.8 °F 86% 29.89 in 10.0 mi NW 10.4 mph - N/A   Overcast
6:35 PM 30.2 °F 21.9 °F 23.0 °F 75% 29.90 in 10.0 mi WNW 9.2 mph - N/A   Overcast
6:55 PM 30.2 °F 19.8 °F 23.0 °F 75% 29.90 in 10.0 mi WNW 13.8 mph - N/A   Overcast
7:15 PM 30.2 °F 19.8 °F 23.0 °F 75% 29.91 in 10.0 mi West 13.8 mph - N/A   Overcast
7:35 PM 30.2 °F 20.8 °F 24.8 °F 80% 29.91 in 10.0 mi NW 11.5 mph - N/A   Overcast
7:55 PM 28.4 °F 20.4 °F 24.8 °F 86% 29.91 in 10.0 mi WNW 8.1 mph - N/A   Overcast
8:15 PM 30.2 °F 20.8 °F 23.0 °F 75% 29.92 in 10.0 mi WNW 11.5 mph 16.1 mph N/A   Overcast
8:35 PM 30.2 °F 21.3 °F 23.0 °F 75% 29.93 in 10.0 mi WNW 10.4 mph 16.1 mph N/A   Overcast
8:55 PM 30.2 °F 23.4 °F 23.0 °F 75% 29.94 in 10.0 mi WNW 6.9 mph - N/A   Overcast
9:15 PM 30.2 °F 22.6 °F 24.8 °F 80% 29.94 in 10.0 mi WNW 8.1 mph - N/A   Overcast
9:35 PM 30.2 °F 25.4 °F 24.8 °F 80% 29.95 in 10.0 mi NW 4.6 mph - N/A   Overcast
9:55 PM 30.2 °F - 24.8 °F 80% 29.95 in 10.0 mi Calm Calm - N/A   Overcast
10:15 PM 28.4 °F 24.6 °F 24.8 °F 86% 29.95 in 10.0 mi WSW 3.5 mph - N/A   Overcast
10:35 PM 28.4 °F 23.3 °F 24.8 °F 86% 29.95 in 10.0 mi WSW 4.6 mph - N/A   Overcast
10:55 PM 28.4 °F 23.3 °F 24.8 °F 86% 29.95 in 10.0 mi West 4.6 mph - N/A   Overcast
11:15 PM 28.4 °F 23.3 °F 24.8 °F 86% 29.96 in 10.0 mi West 4.6 mph - N/A   Overcast
11:35 PM 28.4 °F 24.6 °F 24.8 °F 86% 29.96 in 10.0 mi WNW 3.5 mph - N/A   Overcast
11:55 PM 28.4 °F 24.6 °F 24.8 °F 86% 29.97 in 10.0 mi West 3.5 mph - N/A   Overcast